Time,TemperatureF,DewpointF,PressureIn,WindDirection,WindDirectionDegrees,WindSpeedMPH,WindSpeedGustMPH,Humidity,HourlyPrecipIn,Conditions,Clouds,dailyrainin,SoftwareType,DateUTC
2013-11-04 00:12:00,44.0,36.0,30.22,ESE,112,2.0,5.0,74,0.00,,,0.00,,2013-11-04 06:12:00,
2013-11-04 00:23:00,44.0,36.0,30.22,ESE,112,2.0,5.0,74,0.00,,,0.00,,2013-11-04 06:23:00,
2013-11-04 00:42:00,44.0,36.0,30.23,ESE,114,1.0,8.0,73,0.00,,,0.00,,2013-11-04 06:42:00,
2013-11-04 00:52:00,44.0,36.0,30.23,ESE,114,1.0,8.0,73,0.00,,,0.00,,2013-11-04 06:52:00,
2013-11-04 01:11:00,44.0,36.0,30.22,ESE,110,4.0,9.0,73,0.00,,,0.00,,2013-11-04 07:11:00,
2013-11-04 01:22:00,44.0,36.0,30.22,ESE,110,4.0,9.0,73,0.00,,,0.00,,2013-11-04 07:22:00,
2013-11-04 01:43:00,45.0,37.0,30.21,SE,133,4.0,10.0,72,0.00,,,0.00,,2013-11-04 07:43:00,
2013-11-04 01:52:00,45.0,37.0,30.21,SE,133,4.0,10.0,72,0.00,,,0.00,,2013-11-04 07:52:00,
2013-11-04 02:12:00,45.0,37.0,30.22,SE,143,3.0,10.0,73,0.00,,,0.00,,2013-11-04 08:12:00,
2013-11-04 02:21:00,45.0,37.0,30.22,SE,143,3.0,10.0,73,0.00,,,0.00,,2013-11-04 08:21:00,
2013-11-04 02:42:00,45.0,37.0,30.23,SE,126,2.0,9.0,74,0.00,,,0.00,,2013-11-04 08:42:00,
2013-11-04 02:52:00,45.0,37.0,30.23,SE,126,2.0,9.0,74,0.00,,,0.00,,2013-11-04 08:52:00,
2013-11-04 03:12:00,45.0,38.0,30.23,ESE,114,1.0,8.0,75,0.00,,,0.00,,2013-11-04 09:12:00,
2013-11-04 03:21:00,45.0,38.0,30.23,ESE,114,1.0,8.0,75,0.00,,,0.00,,2013-11-04 09:21:00,
2013-11-04 03:43:00,44.0,37.0,30.22,East,93,4.0,9.0,76,0.00,,,0.00,,2013-11-04 09:43:00,
2013-11-04 03:53:00,44.0,37.0,30.22,East,93,4.0,9.0,76,0.00,,,0.00,,2013-11-04 09:53:00,
2013-11-04 04:12:00,45.0,38.0,30.22,ESE,121,3.0,10.0,76,0.00,,,0.00,,2013-11-04 10:12:00,
2013-11-04 04:23:00,45.0,38.0,30.22,ESE,121,3.0,10.0,76,0.00,,,0.00,,2013-11-04 10:23:00,
2013-11-04 04:42:00,45.0,38.0,30.22,ESE,116,4.0,10.0,76,0.00,,,0.00,,2013-11-04 10:42:00,
2013-11-04 04:52:00,45.0,38.0,30.22,ESE,116,4.0,10.0,76,0.00,,,0.00,,2013-11-04 10:52:00,
2013-11-04 05:12:00,44.0,37.0,30.22,ESE,121,4.0,10.0,76,0.00,,,0.00,,2013-11-04 11:12:00,
2013-11-04 05:22:00,44.0,37.0,30.22,ESE,121,4.0,10.0,76,0.00,,,0.00,,2013-11-04 11:22:00,
2013-11-04 05:43:00,44.0,37.0,30.24,SE,129,2.0,9.0,76,0.00,,,0.00,,2013-11-04 11:43:00,
2013-11-04 05:52:00,44.0,37.0,30.24,SE,129,2.0,9.0,76,0.00,,,0.00,,2013-11-04 11:52:00,
2013-11-04 06:12:00,44.0,37.0,30.23,East,95,4.0,11.0,77,0.00,,,0.00,,2013-11-04 12:12:00,
2013-11-04 06:22:00,44.0,37.0,30.23,East,95,4.0,11.0,77,0.00,,,0.00,,2013-11-04 12:22:00,
2013-11-04 06:42:00,44.0,38.0,30.23,ESE,112,3.0,10.0,78,0.00,,,0.00,,2013-11-04 12:42:00,
2013-11-04 06:52:00,44.0,38.0,30.23,ESE,112,3.0,10.0,78,0.00,,,0.00,,2013-11-04 12:52:00,
2013-11-04 07:11:00,44.0,38.0,30.22,ESE,120,6.0,12.0,78,0.00,,,0.00,,2013-11-04 13:11:00,
2013-11-04 07:21:00,44.0,38.0,30.22,ESE,120,6.0,12.0,78,0.00,,,0.00,,2013-11-04 13:21:00,
2013-11-04 07:42:00,44.0,38.0,30.23,SE,129,3.0,8.0,78,0.00,,,0.00,,2013-11-04 13:42:00,
2013-11-04 07:52:00,44.0,38.0,30.23,SE,129,3.0,8.0,78,0.00,,,0.00,,2013-11-04 13:52:00,
2013-11-04 08:11:00,44.0,38.0,30.23,SE,128,3.0,7.0,78,0.00,,,0.00,,2013-11-04 14:11:00,
2013-11-04 08:22:00,44.0,38.0,30.23,SE,128,3.0,7.0,78,0.00,,,0.00,,2013-11-04 14:22:00,
2013-11-04 08:42:00,45.0,38.0,30.24,SE,137,3.0,10.0,76,0.00,,,0.00,,2013-11-04 14:42:00,
2013-11-04 08:52:00,45.0,38.0,30.24,SE,137,3.0,10.0,76,0.00,,,0.00,,2013-11-04 14:52:00,
2013-11-04 09:11:00,46.0,39.0,30.24,SSE,151,5.0,10.0,75,0.00,,,0.00,,2013-11-04 15:11:00,
2013-11-04 09:22:00,46.0,39.0,30.24,SSE,151,5.0,10.0,75,0.00,,,0.00,,2013-11-04 15:22:00,
2013-11-04 09:42:00,47.0,39.0,30.24,SE,127,2.0,9.0,73,0.00,,,0.00,,2013-11-04 15:42:00,
2013-11-04 09:52:00,47.0,39.0,30.24,SE,127,2.0,9.0,73,0.00,,,0.00,,2013-11-04 15:52:00,
2013-11-04 10:13:00,48.0,39.0,30.23,SSE,150,6.0,12.0,71,0.00,,,0.00,,2013-11-04 16:13:00,
2013-11-04 10:23:00,48.0,39.0,30.23,SSE,150,6.0,12.0,71,0.00,,,0.00,,2013-11-04 16:23:00,
2013-11-04 10:43:00,52.0,40.0,30.23,SE,128,4.0,11.0,63,0.00,,,0.00,,2013-11-04 16:43:00,
2013-11-04 10:53:00,52.0,40.0,30.23,SE,128,4.0,11.0,63,0.00,,,0.00,,2013-11-04 16:53:00,
2013-11-04 11:12:00,54.0,40.0,30.22,SSE,156,7.0,17.0,58,0.00,,,0.00,,2013-11-04 17:12:00,
2013-11-04 11:22:00,54.0,40.0,30.22,SSE,156,7.0,17.0,58,0.00,,,0.00,,2013-11-04 17:22:00,
2013-11-04 11:42:00,55.0,40.0,30.21,South,188,4.0,14.0,57,0.00,,,0.00,,2013-11-04 17:42:00,
2013-11-04 11:53:00,55.0,40.0,30.21,South,188,4.0,14.0,57,0.00,,,0.00,,2013-11-04 17:53:00,
2013-11-04 12:12:00,55.0,41.0,30.20,South,172,5.0,16.0,59,0.00,,,0.00,,2013-11-04 18:12:00,
2013-11-04 12:23:00,55.0,41.0,30.20,South,172,5.0,16.0,59,0.00,,,0.00,,2013-11-04 18:23:00,
2013-11-04 12:42:00,55.0,41.0,30.19,SSE,156,3.0,14.0,60,0.00,,,0.00,,2013-11-04 18:42:00,
2013-11-04 12:52:00,55.0,41.0,30.19,SSE,156,3.0,14.0,60,0.00,,,0.00,,2013-11-04 18:52:00,
2013-11-04 13:12:00,55.0,42.0,30.19,SSW,212,2.0,9.0,61,0.00,,,0.00,,2013-11-04 19:12:00,
2013-11-04 13:22:00,55.0,42.0,30.19,SSW,212,2.0,9.0,61,0.00,,,0.00,,2013-11-04 19:22:00,
2013-11-04 13:42:00,56.0,43.0,30.18,SE,145,4.0,12.0,62,0.00,,,0.00,,2013-11-04 19:42:00,
2013-11-04 13:52:00,56.0,43.0,30.18,SE,145,4.0,12.0,62,0.00,,,0.00,,2013-11-04 19:52:00,
2013-11-04 14:11:00,56.0,43.0,30.18,South,180,2.0,12.0,61,0.00,,,0.00,,2013-11-04 20:11:00,
2013-11-04 14:22:00,56.0,43.0,30.18,South,180,2.0,12.0,61,0.00,,,0.00,,2013-11-04 20:22:00,
2013-11-04 14:42:00,57.0,43.0,30.17,SW,214,7.0,14.0,60,0.00,,,0.00,,2013-11-04 20:42:00,
2013-11-04 14:52:00,57.0,43.0,30.17,SW,214,7.0,14.0,60,0.00,,,0.00,,2013-11-04 20:52:00,
2013-11-04 15:12:00,57.0,43.0,30.17,South,179,4.0,11.0,59,0.00,,,0.00,,2013-11-04 21:12:00,
2013-11-04 15:22:00,57.0,43.0,30.17,South,179,4.0,11.0,59,0.00,,,0.00,,2013-11-04 21:22:00,
2013-11-04 15:45:00,56.0,43.0,30.17,South,191,4.0,9.0,61,0.00,,,0.00,,2013-11-04 21:45:00,
2013-11-04 15:54:00,56.0,43.0,30.17,South,191,4.0,9.0,61,0.00,,,0.00,,2013-11-04 21:54:00,
2013-11-04 16:14:00,56.0,43.0,30.16,SE,144,4.0,11.0,61,0.00,,,0.00,,2013-11-04 22:14:00,
2013-11-04 16:23:00,56.0,43.0,30.16,SE,144,4.0,11.0,61,0.00,,,0.00,,2013-11-04 22:23:00,
2013-11-04 16:43:00,56.0,43.0,30.17,SE,133,5.0,17.0,62,0.00,,,0.00,,2013-11-04 22:43:00,
2013-11-04 16:53:00,56.0,43.0,30.17,SE,133,5.0,17.0,62,0.00,,,0.00,,2013-11-04 22:53:00,
2013-11-04 17:13:00,55.0,43.0,30.18,SSE,150,3.0,11.0,64,0.00,,,0.00,,2013-11-04 23:13:00,
2013-11-04 17:22:00,55.0,43.0,30.18,SSE,150,3.0,11.0,64,0.00,,,0.00,,2013-11-04 23:22:00,
2013-11-04 17:43:00,54.0,43.0,30.18,SSE,151,4.0,10.0,66,0.00,,,0.00,,2013-11-04 23:43:00,
2013-11-04 17:53:00,54.0,43.0,30.18,SSE,151,4.0,10.0,66,0.00,,,0.00,,2013-11-04 23:53:00,
2013-11-04 18:12:00,53.0,43.0,30.19,SE,145,4.0,10.0,68,0.00,,,0.00,,2013-11-05 00:12:00,
2013-11-04 18:22:00,53.0,43.0,30.19,SE,145,4.0,10.0,68,0.00,,,0.00,,2013-11-05 00:22:00,
2013-11-04 18:42:00,53.0,43.0,30.20,SSE,161,2.0,6.0,69,0.00,,,0.00,,2013-11-05 00:42:00,
2013-11-04 18:52:00,53.0,43.0,30.20,SSE,161,2.0,6.0,69,0.00,,,0.00,,2013-11-05 00:52:00,
2013-11-04 19:11:00,52.0,43.0,30.21,SSE,159,1.0,8.0,70,0.00,,,0.00,,2013-11-05 01:11:00,
2013-11-04 19:21:00,52.0,43.0,30.21,SSE,159,1.0,8.0,70,0.00,,,0.00,,2013-11-05 01:21:00,
2013-11-04 19:32:00,52.0,43.0,30.21,SSE,159,1.0,8.0,70,0.00,,,0.00,,2013-11-05 01:32:00,
2013-11-04 20:42:00,52.0,43.0,30.24,SSE,150,1.0,5.0,70,0.00,,,0.00,,2013-11-05 02:42:00,
2013-11-04 20:52:00,52.0,43.0,30.24,SSE,150,1.0,5.0,70,0.00,,,0.00,,2013-11-05 02:52:00,
2013-11-04 21:12:00,51.0,42.0,30.23,SSE,150,3.0,8.0,71,0.00,,,0.00,,2013-11-05 03:12:00,
2013-11-04 21:22:00,51.0,42.0,30.23,SSE,150,3.0,8.0,71,0.00,,,0.00,,2013-11-05 03:22:00,
2013-11-04 21:44:00,51.0,42.0,30.24,SSE,148,3.0,7.0,72,0.00,,,0.00,,2013-11-05 03:44:00,
2013-11-04 21:54:00,51.0,42.0,30.24,SSE,148,3.0,7.0,72,0.00,,,0.00,,2013-11-05 03:54:00,
2013-11-04 22:13:00,52.0,43.0,30.25,SSE,154,3.0,7.0,72,0.00,,,0.00,,2013-11-05 04:13:00,
2013-11-04 22:23:00,52.0,43.0,30.25,SSE,154,3.0,7.0,72,0.00,,,0.00,,2013-11-05 04:23:00,
2013-11-04 22:43:00,52.0,43.0,30.25,SSE,152,1.0,6.0,72,0.00,,,0.00,,2013-11-05 04:43:00,
2013-11-04 22:53:00,52.0,43.0,30.25,SSE,152,1.0,6.0,72,0.00,,,0.00,,2013-11-05 04:53:00,
2013-11-04 23:13:00,52.0,44.0,30.25,SSE,161,2.0,7.0,73,0.00,,,0.00,,2013-11-05 05:13:00,
2013-11-04 23:23:00,52.0,44.0,30.25,SSE,161,2.0,7.0,73,0.00,,,0.00,,2013-11-05 05:23:00,
2013-11-04 23:44:00,52.0,44.0,30.25,SSE,166,2.0,7.0,73,0.00,,,0.00,,2013-11-05 05:44:00,
2013-11-04 23:54:00,52.0,44.0,30.25,SSE,166,2.0,7.0,73,0.00,,,0.00,,2013-11-05 05:54:00,